Find Starlink 30911

NORAD ID: 58374 Int'l Des: 2023-178 Owner: SPXS Country: US Constellation: starlink operational
LEOCIRCULAR

Current View

Loading 3D Globe...

About Starlink 30911

Starlink 30911 (NORAD 58374) is a starlink constellation satellite (v2 mini) launched Nov 20, 2023 by SPXS of US. It operates in LEO, CIRCULAR orbit with a mass of 730.00 kg.

Upcoming Passes

Passes for default location (London). Set your location on the main map for personalized predictions.

Altitude History

Loading altitude history...

Two-Line Element Set

1 58374U 23178A 26235.56614314 .00003938 00000-0 12763-3 0 9991
2 58374 53.1601 302.2099 0000370 116.4888 243.6153 15.34395129155485
Epoch: Aug 23, 2026 • Age: 15 hours

Current Status

Altitude 476.9 km
Apogee / Perigee N/A
Velocity 7.63 km/s
Sub-Earth Point -41.83°S, 149.74°W
Launch Date Nov 20, 2023
Age 2.7 years
Type internet

Technical Details

Classification Payload
Mass 730.00 kg
Dry Mass 700.00 kg
Total Mass 730.00 kg
Length 0.30 m
Diameter 4.10 m
Span 29.00 m
Shape Box + pan
Manufacturer SPXS
Bus Type Starlink V2M
Phase Status In Orbit
Owner/State SPXS/US

Most Searched